VE2JOS-13 Weather Reports


time (UTC)temp
C
wind
direction
speed
KPH
gust
KPH
rain 1hr
cm
rain 24hr
cm
rain mn
cm
humidity
%
barometer
mb
20260510175633 17 260 0.0 1.6 0.00 0.00 0.00 3
20260510173743 18 244 4.8 6.4 0.00 0.00 0.00 3
20260510171843 18 75 6.4 4.8 0.00 0.00 0.00 3
20260510165858 18 253 4.8 6.4 0.00 0.00 0.00 3
20260510164221 18 286 3.2 3.2 0.00 0.00 0.00 3
20260510162522 17 270 4.8 4.8 0.00 0.00 0.00 4
20260510160628 17 257 3.2 6.4 0.00 0.00 0.00 4
20260510154653 17 40 6.4 6.4 0.00 0.00 0.00 4
20260510153006 17 227 3.2 3.2 0.00 0.00 0.00 4
20260510151246 17 225 6.4 11.3 0.00 0.00 0.00 4
20260510145403 17 335 1.6 3.2 0.00 0.00 0.00 5
20260510143447 16 280 1.6 3.2 0.00 0.00 0.00 5
20260510141826 16 274 3.2 3.2 0.00 0.00 0.00 5
20260510140133 16 285 4.8 11.3 0.00 0.00 0.00 5
20260510134247 16 0 0.0 1.6 0.00 0.00 0.00 6
20260510130813 15 257 4.8 3.2 0.00 0.00 0.00 6
20260510123237 13 225 0.0 3.2 0.00 0.00 0.00 7
20260510121633 13 257 1.6 1.6 0.00 0.00 0.00 7
20260510115958 12 265 0.0 1.6 0.00 0.00 0.00 7
20260510114226 12 0 0.0 0.0 0.00 0.00 0.00 8
20260510112433 12 266 0.0 0.0 0.00 0.00 0.00 8
20260510110833 11 0 0.0 0.0 0.00 0.00 0.00 8
20260510105013 11 0 0.0 0.0 0.00 0.00 0.00 9
20260510103258 11 252 8.0 14.5 0.00 0.00 0.00 9
20260510101658 11 253 0.0 1.6 0.00 0.00 0.00 9
20260510100017 11 256 0.0 0.0 0.00 0.00 0.00 9
20260510094413 11 243 1.6 1.6 0.00 0.00 0.00 9
20260510092538 11 260 3.2 4.8 0.00 0.00 0.00 9
20260510090847 11 258 1.6 3.2 0.00 0.00 0.00 9
20260510084903 11 253 1.6 1.6 0.00 0.00 0.00 9
20260510083053 11 209 1.6 4.8 0.00 0.00 0.00 9
20260510081317 11 245 1.6 3.2 0.00 0.00 0.00 9
20260510075427 11 214 1.6 3.2 0.00 0.00 0.00 9
20260510073653 10 111 3.2 4.8 0.00 0.00 0.00 9
20260510071933 10 217 4.8 12.9 0.08 0.00 0.00 9
20260510070158 10 183 4.8 6.4 0.13 0.00 0.00 9
20260510064433 10 170 1.6 11.3 0.13 0.00 0.00 9
20260510062613 10 250 3.2 1.6 0.10 0.00 0.00 9
20260510060846 11 130 3.2 3.2 0.00 0.00 0.00 8
20260510055058 11 187 1.6 4.8 0.00 0.00 0.00 7
20260510053106 11 233 3.2 1.6 0.00 0.00 0.00 8
20260510051228 10 257 1.6 1.6 0.00 0.00 0.00 7
20260510045528 10 226 1.6 6.4 0.00 0.00 0.00 7
20260510043928 10 95 1.6 3.2 0.00 0.00 0.00 7
20260510042058 10 180 3.2 6.4 0.00 0.00 0.00 7
20260510040303 10 273 1.6 3.2 0.00 0.00 0.00 7
20260510034313 10 239 3.2 4.8 0.00 0.00 0.00 7
20260510032703 11 260 1.6 6.4 0.00 0.00 0.00 7
20260510031043 11 141 3.2 6.4 0.00 0.00 0.00 7
20260510025058 11 262 0.0 0.0 0.00 0.00 0.00 7
20260510023313 11 91 1.6 3.2 0.00 0.00 0.00 7
20260510021437 11 199 3.2 4.8 0.00 0.00 0.00 7
20260510021403 11 199 3.2 4.8 0.00 0.00 0.00 7
20260510015748 12 85 1.6 3.2 0.00 0.00 0.00 7
20260510013953 12 240 4.8 8.0 0.00 0.00 0.00 6
20260510012317 12 99 4.8 6.4 0.00 0.00 0.00 6
20260510010613 12 256 1.6 3.2 0.00 0.00 0.00 6
20260510004923 12 242 1.6 1.6 0.00 0.00 0.00 6
20260510002958 13 248 3.2 6.4 0.00 0.00 0.00 6
20260510001431 13 250 6.4 9.7 0.00 0.00 0.00 6
20260510001343 13 250 6.4 9.7 0.00 0.00 0.00 6
20260509235738 14 246 3.2 1.6 0.00 0.00 0.00 6
20260509234033 15 135 9.7 11.3 0.00 0.00 0.00 5
20260509232424 15 253 1.6 3.2 0.00 0.00 0.00 5
20260509230513 16 153 1.6 6.4 0.00 0.00 0.00 5
20260509224558 16 131 1.6 4.8 0.00 0.00 0.00 4
20260509222738 17 263 1.6 1.6 0.00 0.00 0.00 4
20260509221053 18 123 3.2 8.0 0.00 0.00 0.00 3
20260509215103 18 245 1.6 3.2 0.00 0.00 0.00 3
20260509213143 18 110 1.6 0.0 0.00 0.00 0.00 3
20260509211253 19 244 3.2 8.0 0.00 0.00 0.00 2
20260509205541 19 260 8.0 11.3 0.00 0.00 0.00 2
20260509203637 19 172 4.8 6.4 0.00 0.00 0.00 2
20260509201903 18 246 4.8 3.2 0.00 0.00 0.00 2
20260509195932 18 70 4.8 6.4 0.00 0.00 0.00 2
20260509194355 19 122 1.6 4.8 0.00 0.00 0.00 2
20260509194316 19 122 1.6 4.8 0.00 0.00 0.00 2
20260509192428 20 100 8.0 11.3 0.00 0.00 0.00 2
20260509190833 20 252 3.2 9.7 0.00 0.00 0.00 2
20260509185038 20 88 6.4 11.3 0.00 0.00 0.00 2
20260509183223 20 259 1.6 3.2 0.00 0.00 0.00 2
20260509181354 20 0 0.0 0.0 0.00 0.00 0.00 2